星链-3054 (STARLINK-3054 )

导读 | 豆包AI

STARLINK-3054是美国SpaceX公司星链(Starlink)互联网星座项目的卫星,于2021年9月14日发射升空,属于该项目低轨卫星组网的组成部分。它运行在近地轨道,依托星链的通信技术,为全球用户提供高速低延迟的宽带互联网接入服务,尤其填补偏远地区网络覆盖空白,增强了星链星座的覆盖稳定性与服务容量,推动全球卫星互联网技术发展。

基本信息
目录编号:
49167
目录名称:
STARLINK-3054
国际标识:
2021-082AP
轨道中心:
EARTH
卫星名称:
星链-3054
卫星全名:
星链-3054 (STARLINK-3054 )
卫星状态:
在轨 (已飞行1642 天)
发射日期:
2021-09-14 UTC
国别 :
美国 (US)
星等 :
--
轨道信息
数据来源 国际轨道数据
星历时间: 2026-03-14T22:29:58+0800
7小时前
查看轨道信息
半长轴: 6950.245km
偏心率: 0.0003101
轨道倾角: 69.997°
近地点辐角 270.451°
升交点赤经 282.054°
平近点角 89.629°
近地点: 569.952km
远地点: 574.264km
周期: 96.108分钟
每日圈数: 14.983132
详细信息
固有亮度:
5
最大亮度:
2.5
卫星平台:
Starlink v1.5
覆盖范围:
全球
运营商:
太空探索技术公司
运营商所在国:
美国
制造商(研发单位):
太空探索技术公司
制造商所在国:
美国
使用方式:
暂无
卫星简介
星链(Starlink)计划是由太空探索技术公司(SpaceX)提出的一个巨型低轨卫星互联网星座项目,计划在2019年至2024年间在太空搭建由约1.2万颗卫星组成的“星链”网络,其中1584颗将部署在地球上空550千米处的近地轨道,并从2020年开始工作。该卫星仍在工作。
2D轨道图
3D轨道图
轨道高度分析图
轨道倾角分析图
轨道综合分析图
查看轨道综合分析图